Change the Weather History Date:

Wednesday, March 12, 2014

  Actual Average (KCLT) Record (KCLT)
Temperature  
Mean Temperature 61 °F 50 °F  
Max Temperature 74 °F 62 °F 86 °F (1990)
Min Temperature 48 °F 38 °F 19 °F (1969)
Degree Days  
Heating Degree Days 4 15  
Month to date heating degree days 198  
Since 1 July heating degree days 2897  
Cooling Degree Days 0 0  
Month to date cooling degree days 0  
Year to date cooling degree days 0  
Growing Degree Days 11 (Base 50)    
Moisture  
Dew Point 49 °F    
Average Humidity 60    
Maximum Humidity 90    
Minimum Humidity 39    
Precipitation  
Precipitation 0.00 in 0.14 in 2.17 in (1968)
Month to date precipitation 1.62  
Year to date precipitation 8.35  
Snow  
Snow 0.00 in 0.10 in 3.80 in (1914)
Month to date snowfall 0.4  
Since 1 July snowfall 4.1  
Snow Depth -    
Sea Level Pressure  
Sea Level Pressure 29.53 in    
Wind  
Wind Speed 7 mph (SSW)    
Max Wind Speed 25 mph    
Max Gust Speed 39 mph    
Visibility 10 miles    
Events Rain    
T = Trace of Precipitation, MM = Missing Value Source: NWS Daily Summary

Daily Weather History Graph

Daily Weather History Graph

Search for Another Location

Airport or City:

Trip Planner

Search our weather history database for the weather conditions in past years. The results will help you decide how hot, cold, wet, or windy it might be!

Date:

Astronomy

Mar. 12, 2014 Rise Set
Actual Time 7:35 AM EDT 7:25 PM EDT
Civil Twilight 7:09 AM EDT 7:50 PM EDT
Nautical Twilight 6:40 AM EDT 8:20 PM EDT
Astronomical Twilight 6:11 AM EDT 8:49 PM EDT
Moon 4:00 PM EDT (3/12) 4:58 AM EDT (3/12)
Length of Visible Light 12h 40m
Length of Day
11h 50m
Waxing Gibbous, 85% of the Moon is Illuminated
Mar 12
Waxing Gibbous
Mar 16
Full
Mar 23
Last Quarter
Mar 30
New
Apr 7
First Quarter

Hourly Weather History & Observations

Time (EDT) Temp. Dew Point Humidity Pressure Visibility Wind Dir Wind Speed Gust Speed Precip Events Conditions
12:15 AM 66.6 °F 45.0 °F 46% 29.70 in 10.0 mi South 3.5 mph - N/A   Clear
12:35 AM 66.6 °F 45.1 °F 46% 29.69 in 10.0 mi SSW 3.5 mph - N/A   Clear
12:55 AM 66.2 °F 45.7 °F 48% 29.69 in 10.0 mi SSW 4.6 mph - N/A   Clear
1:15 AM 66.9 °F 46.2 °F 47% 29.68 in 10.0 mi South 3.5 mph - N/A   Clear
1:35 AM 66.4 °F 46.4 °F 49% 29.67 in 10.0 mi South 3.5 mph - N/A   Clear
1:55 AM 66.2 °F 46.2 °F 49% 29.67 in 10.0 mi South 3.5 mph - N/A   Clear
2:15 AM 65.5 °F 46.9 °F 51% 29.67 in 10.0 mi South 4.6 mph - N/A   Clear
2:35 AM 63.7 °F 47.5 °F 56% 29.66 in 10.0 mi South 3.5 mph - N/A   Clear
2:55 AM 64.4 °F 47.5 °F 54% 29.65 in 10.0 mi SSW 3.5 mph - N/A   Clear
3:15 AM 63.7 °F 47.7 °F 56% 29.64 in 10.0 mi Calm Calm - N/A   Scattered Clouds
3:35 AM 63.1 °F 48.2 °F 58% 29.63 in 10.0 mi Calm Calm - N/A   Scattered Clouds
3:55 AM 62.8 °F 48.4 °F 59% 29.63 in 10.0 mi SW 3.5 mph - N/A   Clear
4:15 AM 62.8 °F 49.1 °F 61% 29.62 in 10.0 mi SSW 4.6 mph - N/A   Scattered Clouds
4:35 AM 63.7 °F 49.3 °F 59% 29.62 in 10.0 mi SSW 3.5 mph - N/A   Scattered Clouds
4:55 AM 63.3 °F 50.0 °F 62% 29.62 in 10.0 mi South 3.5 mph - N/A   Light Drizzle
5:15 AM 64.2 °F 50.4 °F 61% 29.62 in 10.0 mi South 3.5 mph - N/A   Overcast
5:35 AM 64.0 °F 51.3 °F 63% 29.61 in 10.0 mi Calm Calm - N/A Rain Light Rain
5:55 AM 62.8 °F 52.0 °F 68% 29.61 in 10.0 mi SSW 3.5 mph - N/A Rain Light Rain
6:15 AM 63.5 °F 52.5 °F 67% 29.61 in 10.0 mi South 4.6 mph - N/A   Light Drizzle
6:35 AM 62.6 °F 53.2 °F 71% 29.61 in 10.0 mi SSW 6.9 mph - N/A   Overcast
6:55 AM 63.5 °F 52.9 °F 68% 29.61 in 10.0 mi SSW 8.1 mph - N/A Rain Light Rain
7:15 AM 63.1 °F 53.8 °F 71% 29.61 in 10.0 mi SSW 6.9 mph - N/A   Light Drizzle
7:35 AM 62.6 °F 54.5 °F 75% 29.60 in 10.0 mi South 4.6 mph - N/A Rain Light Rain
7:55 AM 61.7 °F 55.2 °F 79% 29.60 in 10.0 mi South 4.6 mph - N/A Rain Light Rain
8:15 AM 61.9 °F 55.4 °F 79% 29.59 in 10.0 mi South 6.9 mph - N/A   Overcast
8:35 AM 62.2 °F 55.9 °F 80% 29.59 in 10.0 mi SSW 5.8 mph - N/A   Overcast
8:55 AM 62.2 °F 56.3 °F 81% 29.58 in 10.0 mi SSW 5.8 mph - N/A   Overcast
9:15 AM 62.6 °F 56.3 °F 80% 29.57 in 10.0 mi SSW 4.6 mph - N/A   Overcast
9:35 AM 62.2 °F 56.3 °F 81% 29.57 in 10.0 mi SSW 4.6 mph - N/A   Overcast
9:55 AM 62.2 °F 55.9 °F 80% 29.56 in 10.0 mi SSW 5.8 mph - N/A   Overcast
10:15 AM 62.4 °F 55.6 °F 78% 29.56 in 10.0 mi South 5.8 mph - N/A   Overcast
10:35 AM 61.5 °F 56.1 °F 82% 29.55 in 4.0 mi South 8.1 mph - N/A   Haze
10:55 AM 60.4 °F 57.4 °F 90% 29.54 in 4.0 mi South 5.8 mph - N/A   Light Drizzle
11:15 AM 61.2 °F 57.4 °F 87% 29.53 in 10.0 mi South 10.4 mph - N/A   Overcast
11:35 AM 61.7 °F 57.2 °F 85% 29.52 in 10.0 mi South 5.8 mph - N/A   Overcast
11:55 AM 62.1 °F 57.0 °F 84% 29.51 in 10.0 mi SSW 10.4 mph 20.7 mph N/A   Overcast
12:15 PM 62.4 °F 56.8 °F 82% 29.50 in 10.0 mi South 11.5 mph 18.4 mph N/A   Overcast
12:35 PM 62.6 °F 57.2 °F 82% 29.49 in 10.0 mi SSW 12.7 mph 19.6 mph N/A   Overcast
12:55 PM 63.9 °F 57.7 °F 80% 29.47 in 10.0 mi SSW 10.4 mph 20.7 mph N/A   Overcast
1:15 PM 64.0 °F 57.6 °F 79% 29.47 in 10.0 mi SSW 10.4 mph 18.4 mph N/A   Overcast
1:35 PM 64.8 °F 57.0 °F 76% 29.44 in 10.0 mi SSW 10.4 mph 25.3 mph N/A   Overcast
2:15 PM 64.8 °F 57.2 °F 76% 29.42 in 10.0 mi SSW 12.7 mph 20.7 mph N/A   Overcast
2:35 PM 65.3 °F 57.0 °F 75% 29.41 in 10.0 mi SSW 10.4 mph 19.6 mph N/A   Overcast
2:55 PM 66.6 °F 57.2 °F 72% 29.39 in 10.0 mi SSW 11.5 mph 24.2 mph N/A   Overcast
3:15 PM 67.6 °F 56.8 °F 68% 29.37 in 10.0 mi SSW 11.5 mph 19.6 mph N/A   Overcast
3:35 PM 70.5 °F 56.7 °F 61% 29.36 in 10.0 mi SSW 11.5 mph 24.2 mph N/A   Mostly Cloudy
3:55 PM 71.1 °F 56.3 °F 60% 29.34 in 10.0 mi SSW 17.3 mph 26.5 mph N/A   Mostly Cloudy
4:15 PM 72.5 °F 55.6 °F 55% 29.33 in 10.0 mi SSW 12.7 mph 26.5 mph N/A   Scattered Clouds
4:35 PM 72.7 °F 55.4 °F 55% 29.32 in 10.0 mi SSW 13.8 mph 24.2 mph N/A   Scattered Clouds
4:55 PM 73.8 °F 54.3 °F 51% 29.32 in 10.0 mi SW 17.3 mph 25.3 mph N/A   Scattered Clouds
5:15 PM 74.5 °F 53.1 °F 47% 29.31 in 10.0 mi SSW 18.4 mph 31.1 mph N/A   Mostly Cloudy
5:35 PM 74.7 °F 53.1 °F 47% 29.31 in 10.0 mi SSW 11.5 mph 25.3 mph N/A   Mostly Cloudy
5:55 PM 74.7 °F 52.0 °F 45% 29.30 in 10.0 mi SSW 18.4 mph 34.5 mph N/A   Scattered Clouds
6:15 PM 74.5 °F 51.1 °F 44% 29.30 in 10.0 mi SSW 12.7 mph 28.8 mph N/A   Scattered Clouds
6:35 PM 73.8 °F 50.9 °F 45% 29.31 in 10.0 mi SSW 13.8 mph 21.9 mph N/A   Scattered Clouds
6:55 PM 72.3 °F 51.4 °F 48% 29.33 in 10.0 mi SW 15.0 mph 39.1 mph N/A Rain Light Rain
7:15 PM 70.9 °F 50.9 °F 49% 29.34 in 10.0 mi SW 11.5 mph 19.6 mph N/A   Scattered Clouds
7:35 PM 70.7 °F 49.3 °F 47% 29.36 in 10.0 mi SW 11.5 mph 23.0 mph N/A   Scattered Clouds
7:55 PM 65.3 °F 41.5 °F 42% 29.43 in 10.0 mi NW 25.3 mph 39.1 mph N/A   Mostly Cloudy
8:15 PM 60.4 °F 37.0 °F 42% 29.47 in 10.0 mi NW 24.2 mph 39.1 mph N/A   Scattered Clouds
8:35 PM 57.7 °F 33.6 °F 40% 29.50 in 10.0 mi WNW 13.8 mph 28.8 mph N/A   Clear
8:55 PM 55.8 °F 32.5 °F 41% 29.53 in 10.0 mi West 15.0 mph 28.8 mph N/A   Scattered Clouds
9:15 PM 55.0 °F 31.6 °F 41% 29.55 in 10.0 mi WNW 15.0 mph 24.2 mph N/A   Mostly Cloudy
9:35 PM 54.7 °F 32.0 °F 42% 29.57 in 10.0 mi WNW 12.7 mph 25.3 mph N/A   Overcast
9:55 PM 53.1 °F 29.3 °F 40% 29.60 in 10.0 mi WNW 18.4 mph 27.6 mph N/A   Overcast
10:15 PM 52.0 °F 28.2 °F 40% 29.62 in 10.0 mi WNW 17.3 mph 26.5 mph N/A   Mostly Cloudy
10:35 PM 50.9 °F 27.3 °F 40% 29.64 in 10.0 mi WNW 16.1 mph 23.0 mph N/A   Scattered Clouds
10:55 PM 50.0 °F 27.1 °F 41% 29.65 in 10.0 mi WNW 10.4 mph 23.0 mph N/A   Clear
11:15 PM 49.3 °F 27.5 °F 43% 29.67 in 10.0 mi West 6.9 mph 17.3 mph N/A   Clear
11:35 PM 48.7 °F 25.9 °F 41% 29.68 in 10.0 mi WNW 10.4 mph 18.4 mph N/A   Clear
11:55 PM 48.2 °F 24.1 °F 39% 29.70 in 10.0 mi WNW 8.1 mph - N/A   Clear